[[{"header":{"parameterUnit":"m.s-1","parameterCategory":1,"la1":30.2991,"la2":30.254,"lo1":-89.0895,"lo2":-89.0444,"dy":0.0017,"dx":0.0017,"nx":28,"ny":28,"refTime":"2025-01-17T09:00:00:Z","depth":0,"parameterNumber":2,"parameterNumberName":"U-component_of_WINDS"},"data":[0,0,0,0,0,0,0,0,0,0,0,0,0,0,0,0,0,0,0,0,0,0,0,0,0,0,0,0,0,0,0,0,0,0,0,0,0,0,0,0,0,0,0,0,0,0,0,0,0,0,0,0,0,0,0,0,0,0,1.5042,1.5042,0,1.5079,1.508,1.508,1.5018,1.5016,1.5014,1.5012,1.5055,1.5058,1.5061,0,0,0,0,0,0,0,0,0,0,0,0,0,1.4921,1.4924,1.5042,1.5042,1.5043,1.5079,1.508,1.508,1.5018,1.5016,1.5013,1.5011,1.5054,1.5058,1.5062,0,0,0,0,0,0,0,0,0,0,0,0,0,1.4968,1.4925,1.5042,1.5016,1.5014,1.5079,1.508,1.5081,1.5019,1.5016,1.5012,1.501,1.5053,1.5058,1.5062,1.5156,0,0,1.5077,1.5079,0,0,0,0,0,0,0,0,1.4965,1.4972,1.5019,1.5018,1.5016,1.5041,1.5053,1.5106,1.502,1.5017,1.5012,1.5008,1.5053,1.5058,1.5072,1.5158,1.516,1.5077,1.508,1.5082,1.5083,0,0,0,0,0,0,0,1.4962,1.4971,1.5057,1.502,1.5018,1.5004,1.5007,1.5063,1.5053,1.5017,1.5013,1.5018,1.5052,1.5068,1.5073,1.516,1.5077,1.5081,1.5084,1.5086,1.5326,1.5329,0,0,0,0,0,0,1.4961,1.4968,1.5056,1.5058,1.4982,1.5009,1.5013,1.5036,1.5052,1.5051,1.5021,1.5015,1.5061,1.5067,1.5074,1.5185,1.5082,1.5086,1.5089,1.5323,1.5327,1.5331,0,0,0,0,0,0,1.4959,1.497,1.5054,1.5012,1.5022,1.5015,1.5042,1.5038,1.5054,1.5055,1.5053,1.5038,1.5059,1.5067,1.5136,1.5186,1.5088,1.5093,1.5318,1.5324,1.5329,1.5409,0,0,0,0,0,0,1.4956,1.4969,1.5003,1.5013,1.5024,1.5114,1.5045,1.5042,1.5062,1.5055,1.5071,1.507,1.5057,1.5129,1.5141,1.5191,1.5096,1.5314,1.5321,1.5327,1.5402,1.5416,1.5428,0,0,0,0,0,1.4952,1.5025,1.5005,1.5016,1.5066,1.5117,1.5123,1.5105,1.5066,1.5101,1.5102,1.507,1.5178,1.5137,1.5149,1.5201,1.5311,1.5319,1.5327,1.5395,1.5413,1.5428,0,0,0,0,0,0,1.5023,1.5026,1.5004,1.5082,1.51,1.5106,1.515,1.5124,1.5154,1.5146,1.5124,1.5128,1.5202,1.5208,1.5162,1.5294,1.5238,1.5249,1.5287,1.5303,1.5317,1.5314,1.51,0,0,0,0,0,1.5047,1.5087,1.5088,1.5157,1.5167,1.5157,1.5178,1.5163,1.518,1.5188,1.5193,1.5213,1.5252,1.5278,1.5313,1.5402,1.5406,1.5444,1.5458,1.5469,1.5479,1.5528,1.5545,1.5357,1.5357,1.5357,0,0,1.5099,1.5106,1.5132,1.5172,1.5183,1.5226,1.5164,1.5212,1.5244,1.5196,1.526,1.5265,1.5286,1.5366,1.5401,1.5373,1.5532,1.5479,1.5488,1.5492,1.5538,1.5556,1.5572,1.5362,1.5361,1.536,0,0,1.5215,1.5223,1.5282,1.5295,1.5313,1.5306,1.5321,1.5332,1.5333,1.5397,1.5362,1.5401,1.5468,1.5484,1.5501,1.5625,1.5597,1.5637,1.5708,1.5756,1.5771,1.5784,1.583,1.5846,1.5647,1.5647,1.5647,0,1.5278,1.5339,1.5316,1.5367,1.5386,1.5343,1.5404,1.5418,1.5448,1.5463,1.5431,1.5514,1.5525,1.5609,1.5639,1.5654,1.5671,1.5636,1.577,1.5783,1.5795,1.5838,1.5855,1.5652,1.5652,1.5651,1.5651,0,1.5416,1.5459,1.5505,1.5534,1.5558,1.5613,1.5601,1.5628,1.5611,1.5608,1.5676,1.5687,1.5725,1.5743,1.5727,1.5825,1.5807,1.5774,1.5718,1.5818,1.5859,1.5875,1.5659,1.5657,1.5656,1.5655,0,0,1.5577,1.5593,1.561,1.5623,1.564,1.5674,1.5729,1.5764,1.5789,1.5811,1.5858,1.5915,1.5884,1.5904,1.5889,1.5931,1.603,1.5892,1.5893,1.5919,1.6141,1.6167,1.6186,1.6012,1.6015,1.6017,1.6139,0,1.5694,1.5786,1.5768,1.5859,1.59,1.586,1.5908,1.5925,1.5924,1.596,1.596,1.6001,1.5956,1.5968,1.6008,1.601,1.6075,1.6001,1.6056,1.6059,1.6053,1.6207,1.6234,1.6349,1.6155,1.6157,1.6159,0,1.5841,1.5868,1.5963,1.5975,1.5992,1.6034,1.6066,1.6101,1.612,1.6116,1.6139,1.6116,1.6173,1.6116,1.6194,1.6144,1.6165,1.617,1.6174,1.6179,1.6116,1.6217,1.6385,1.6403,1.6184,1.6182,1.618,0,1.5951,1.6011,1.6076,1.6088,1.6103,1.6135,1.6143,1.6158,1.6181,1.621,1.6225,1.626,1.6279,1.6308,1.6297,1.6256,1.6378,1.6319,1.6378,1.6378,1.6406,1.6404,1.658,1.6418,1.6418,1.6418,1.6418,0,1.6084,1.6144,1.6126,1.6166,1.6232,1.6212,1.6279,1.6282,1.6297,1.6338,1.6306,1.6346,1.6328,1.6367,1.6359,1.6426,1.6435,1.6435,1.6432,1.6438,1.6438,1.6453,1.6445,1.6422,1.6421,1.6421,1.642,0,1.6218,1.6208,1.6276,1.6285,1.6289,1.6338,1.6346,1.6384,1.6381,1.6434,1.6445,1.6441,1.6485,1.6477,1.6526,1.652,1.6604,1.6591,1.6598,1.6595,1.6654,1.6649,1.6846,1.6872,1.6693,1.6695,1.6696,0,1.6303,1.6348,1.6362,1.6386,1.6397,1.6437,1.646,1.6442,1.6468,1.6494,1.653,1.6571,1.6603,1.6677,1.6679,1.6717,1.6705,1.6772,1.6711,1.6716,1.6708,1.6705,1.671,1.6784,1.6786,1.6788,1.6789,0,1.6456,1.6449,1.6483,1.6516,1.6544,1.6569,1.6592,1.6614,1.6598,1.6629,1.6674,1.6699,1.6749,1.6791,1.6827,1.6837,1.6812,1.6808,1.6824,1.6831,1.6833,1.6834,1.6632,1.6804,1.6802,1.6801,1.6801,1.68,1.6568,1.6607,1.6623,1.6663,1.6677,1.6699,1.6736,1.6738,1.6774,1.6813,1.68,1.6852,1.6871,1.6916,1.693,1.6971,1.6946,1.6969,1.6975,1.6981,1.6988,1.6826,1.6977,1.6977,1.6976,1.6976,1.6976,0,1.672,1.6729,1.6765,1.6797,1.6829,1.6801,1.6825,1.6853,1.6898,1.6918,1.695,1.7003,1.7044,1.7049,1.7089,1.712,1.711,1.7131,1.7129,1.7132,1.7008,1.699,1.7139,1.7139,1.7139,1.7139,1.7139,1.7139,1.6803,1.6868,1.6863,1.6935,1.6944,1.6993,1.7009,1.703,1.7045,1.7105,1.7138,1.7141,1.7156,1.7196,1.7233,1.7234,1.7251,1.7277,1.7274,1.7157,1.7141,1.7125,1.7109,1.7281,1.7281,1.7395,1.7396,1.7397]},{"header":{"parameterUnit":"m.s-1","parameterCategory":1,"la1":30.2991,"la2":30.254,"lo1":-89.0895,"lo2":-89.0444,"dy":0.0017,"dx":0.0017,"nx":28,"ny":28,"refTime":"2025-01-17T09:00:00:Z","depth":0,"parameterNumber":3,"parameterNumberName":"V-component_of_WINDS"},"data":[0,0,0,0,0,0,0,0,0,0,0,0,0,0,0,0,0,0,0,0,0,0,0,0,0,0,0,0,0,0,0,0,0,0,0,0,0,0,0,0,0,0,0,0,0,0,0,0,0,0,0,0,0,0,0,0,0,0,1.7406,1.7407,0,1.7503,1.7504,1.7505,1.7509,1.7508,1.7507,1.7506,1.7603,1.7606,1.761,0,0,0,0,0,0,0,0,0,0,0,0,0,1.722,1.7223,1.7406,1.7407,1.7408,1.7503,1.7504,1.7505,1.7509,1.7508,1.7506,1.7505,1.7602,1.7606,1.761,0,0,0,0,0,0,0,0,0,0,0,0,0,1.7307,1.7224,1.7405,1.7421,1.7424,1.7503,1.7504,1.7506,1.751,1.7508,1.7506,1.7504,1.76,1.7605,1.7611,1.7679,0,0,1.7628,1.763,0,0,0,0,0,0,0,0,1.7302,1.7314,1.7418,1.742,1.7423,1.7492,1.7474,1.7564,1.751,1.7477,1.7506,1.7504,1.7567,1.7575,1.7597,1.7684,1.7688,1.7628,1.7631,1.7634,1.7635,0,0,0,0,0,0,0,1.7296,1.731,1.7444,1.7419,1.7423,1.7423,1.7433,1.7491,1.753,1.748,1.748,1.7492,1.7568,1.7592,1.76,1.769,1.7628,1.7633,1.7636,1.7638,1.7837,1.7839,0,0,0,0,0,0,1.7287,1.7305,1.7441,1.7447,1.7357,1.7427,1.7439,1.7472,1.753,1.7537,1.7493,1.7492,1.7583,1.7593,1.7603,1.7687,1.7634,1.7639,1.7642,1.7835,1.7837,1.7839,0,0,0,0,0,0,1.7283,1.7299,1.7437,1.7376,1.7393,1.7432,1.7469,1.7475,1.7498,1.754,1.7547,1.751,1.7582,1.7595,1.766,1.7691,1.7641,1.7646,1.7832,1.7836,1.7838,1.7857,0,0,0,0,0,0,1.7278,1.7298,1.7325,1.7377,1.7397,1.7494,1.7471,1.7478,1.7508,1.7507,1.7558,1.7565,1.7582,1.7652,1.7666,1.7697,1.7651,1.783,1.7834,1.7837,1.7853,1.786,1.7865,0,0,0,0,0,1.7271,1.7326,1.7327,1.7343,1.7432,1.7496,1.7507,1.7527,1.7511,1.7538,1.7564,1.7563,1.7685,1.7659,1.7674,1.7708,1.7828,1.7833,1.7837,1.7851,1.7859,1.7865,0,0,0,0,0,0,1.7276,1.7333,1.7334,1.7408,1.7447,1.7496,1.7532,1.7534,1.7578,1.7575,1.7597,1.7608,1.7673,1.7697,1.7667,1.7777,1.7754,1.7762,1.776,1.7767,1.7773,1.7767,1.7655,0,0,0,0,0,1.7286,1.7334,1.7381,1.7441,1.746,1.7492,1.7521,1.7533,1.7574,1.759,1.7622,1.7661,1.7708,1.7739,1.7784,1.7856,1.7867,1.7887,1.7892,1.7897,1.7904,1.7944,1.7953,1.7854,1.7854,1.7854,0,0,1.7307,1.7344,1.7373,1.7443,1.7475,1.7523,1.7507,1.7559,1.7595,1.7598,1.7662,1.7686,1.7731,1.78,1.7832,1.7822,1.7933,1.7903,1.7906,1.7911,1.7949,1.7958,1.7967,1.7857,1.7856,1.7856,0,0,1.7369,1.7402,1.7456,1.7488,1.7537,1.7558,1.757,1.7619,1.7636,1.77,1.7704,1.7746,1.7827,1.7859,1.7886,1.7959,1.796,1.7973,1.8004,1.8043,1.805,1.8057,1.8084,1.8093,1.7979,1.7979,1.7979,0,1.7389,1.7463,1.7483,1.7535,1.7566,1.7571,1.7625,1.7655,1.7716,1.7736,1.7724,1.7825,1.7856,1.7933,1.795,1.7972,1.7987,1.7968,1.8048,1.8055,1.8062,1.8088,1.8098,1.7981,1.7981,1.798,1.798,0,1.7485,1.7536,1.7573,1.7633,1.7667,1.772,1.7747,1.7779,1.7787,1.7809,1.7874,1.7911,1.7964,1.7982,1.799,1.806,1.8052,1.8044,1.8022,1.8073,1.8097,1.8107,1.7983,1.7982,1.7982,1.7982,0,0,1.7555,1.7624,1.7638,1.7665,1.7718,1.7758,1.781,1.7863,1.789,1.7931,1.7975,1.8043,1.8035,1.8066,1.8077,1.811,1.8167,1.8098,1.8099,1.811,1.8246,1.8253,1.8264,1.8167,1.8168,1.817,1.8242,0,1.7624,1.7719,1.7738,1.782,1.7867,1.7873,1.7918,1.7955,1.7976,1.8019,1.8041,1.809,1.8076,1.8094,1.8127,1.8153,1.8194,1.8148,1.8208,1.821,1.8198,1.8277,1.8285,1.8351,1.8252,1.8253,1.8255,0,1.7718,1.7763,1.785,1.7897,1.7917,1.7958,1.8008,1.8048,1.809,1.8103,1.8136,1.8144,1.8197,1.8172,1.8246,1.8213,1.8239,1.8255,1.8258,1.8265,1.8236,1.8287,1.8373,1.8383,1.827,1.8269,1.8268,0,1.7762,1.7843,1.7906,1.7928,1.7984,1.8013,1.8037,1.8077,1.8108,1.815,1.817,1.8218,1.8244,1.8281,1.83,1.828,1.8373,1.8349,1.8385,1.8385,1.8406,1.8405,1.8498,1.842,1.842,1.842,1.8419,0,1.7838,1.7891,1.7926,1.7965,1.8024,1.8044,1.8102,1.8126,1.8161,1.8204,1.821,1.825,1.8273,1.8315,1.8331,1.839,1.8401,1.8413,1.8417,1.8414,1.8412,1.8432,1.8428,1.8422,1.8422,1.8421,1.8421,0,1.7897,1.7923,1.7992,1.8039,1.8052,1.8094,1.8134,1.8171,1.8191,1.8245,1.8259,1.8291,1.8342,1.8365,1.8427,1.8437,1.8504,1.8504,1.8491,1.8493,1.8528,1.8525,1.8638,1.8654,1.8564,1.8565,1.8566,0,1.7945,1.7986,1.8038,1.8068,1.8093,1.814,1.8172,1.8192,1.8224,1.8274,1.8305,1.8356,1.8398,1.8478,1.8506,1.8554,1.8555,1.8592,1.8562,1.8558,1.8557,1.8555,1.8559,1.8597,1.8598,1.8599,1.86,0,1.8027,1.8038,1.8083,1.8133,1.817,1.8209,1.8248,1.8272,1.8298,1.8333,1.8386,1.8418,1.8482,1.8532,1.8581,1.8605,1.8607,1.8608,1.8619,1.8617,1.8608,1.8615,1.8507,1.8606,1.8605,1.8605,1.8605,1.8604,1.8083,1.812,1.8162,1.8212,1.8244,1.828,1.8317,1.8343,1.8387,1.8441,1.845,1.8505,1.8545,1.8611,1.8637,1.868,1.8671,1.8687,1.8691,1.8695,1.8698,1.86,1.8688,1.8688,1.8688,1.8688,1.8688,0,1.8166,1.8194,1.8239,1.8294,1.8333,1.8331,1.8374,1.8407,1.8456,1.8493,1.8534,1.8594,1.8643,1.8674,1.8723,1.8752,1.8754,1.8764,1.8763,1.8768,1.8702,1.8688,1.8762,1.8762,1.8762,1.8762,1.8762,1.8762,1.8214,1.8277,1.8292,1.837,1.8397,1.8452,1.8477,1.851,1.854,1.8606,1.8647,1.8668,1.8703,1.8754,1.8798,1.8806,1.8824,1.8835,1.8843,1.8781,1.8773,1.8766,1.8753,1.8838,1.8839,1.8906,1.8906,1.8907]}]]